Location: Bad Salzschlirf
(50.3750°N, 9.3000°E)
Time: 03:47:03
(UTC+02:00)

ISS - Pass Details

Date: 05 July 2020
Orbit: 417 x 421 km, 51.6° (Epoch: 08 July)

Event Time Altitude Azimuth Distance (km) Brightness Sun altitude
Exits shadow 02:36:54 20° 142° (SE) 1,029 -2.1 -15.3°
Drops below altitude 10° 02:39:25 10° 93° (E) 1,496 -0.8 -15.2°
Sets 02:41:52 0° 76° (ENE) 2,363 0.5 -15.0°
